Weather History for KIWI - October, 2012

Change the Weather History Date:

Friday, October 26, 2012

  Actual Average (KAUG) Record (KAUG)
Temperature  
Mean Temperature 48 °F 45 °F  
Max Temperature 63 °F 53 °F - ()
Min Temperature 35 °F 37 °F - ()
Degree Days  
Heating Degree Days 16 20  
Month to date heating degree days 410  
Since 1 July heating degree days 630  
Cooling Degree Days 0 0  
Month to date cooling degree days 0  
Year to date cooling degree days 387  
Moisture  
Dew Point 42 °F    
Average Humidity 84    
Maximum Humidity 93    
Minimum Humidity 58    
Precipitation  
Precipitation 0.00 in 0.14 in - ()
Month to date precipitation 3.65  
Year to date precipitation 33.57  
Sea Level Pressure  
Sea Level Pressure 30.22 in    
Wind  
Wind Speed 1 mph (South)    
Max Wind Speed 7 mph    
Max Gust Speed -    
Visibility 9 miles    
Events Fog    
T = Trace of Precipitation, MM = Missing Value Source: NWS Daily Summary

Daily Weather History Graph

Daily Weather History Graph

Search for Another Location

Airport or City:

Trip Planner

Search our weather history database for the weather conditions in past years. The results will help you decide how hot, cold, wet, or windy it might be!

Date:

Astronomy

Oct. 26, 2012 Rise Set
Actual Time 7:07 AM EDT 5:36 PM EDT
Civil Twilight 6:38 AM EDT 6:06 PM EDT
Nautical Twilight 6:04 AM EDT 6:40 PM EDT
Astronomical Twilight 5:31 AM EDT 7:13 PM EDT
Moon 3:55 PM EDT (10/26) 3:55 AM EDT (10/26)
Length of Visible Light 11h 28m
Length of Day
10h 28m
Waxing Gibbous, 91% of the Moon is Illuminated
Oct 26
Waxing Gibbous
Oct 29
Full
Nov 6
Last Quarter
Nov 13
New
Nov 20
First Quarter

Hourly Weather History & Observations

Time (EDT) Temp. Dew Point Humidity Pressure Visibility Wind Dir Wind Speed Gust Speed Precip Events Conditions
12:53 AM 35.1 °F 33.1 °F 92% 30.28 in 10.0 mi Calm Calm - N/A   Clear
1:53 AM 35.1 °F 33.1 °F 92% 30.28 in 10.0 mi Calm Calm - N/A   Partly Cloudy
2:12 AM 35.6 °F 33.8 °F 93% 30.28 in 10.0 mi Calm Calm - N/A   Mostly Cloudy
2:53 AM 36.0 °F 34.0 °F 93% 30.27 in 10.0 mi Calm Calm - N/A   Overcast
3:53 AM 37.0 °F 34.0 °F 89% 30.26 in 10.0 mi Calm Calm - N/A   Overcast
4:53 AM 37.9 °F 35.1 °F 89% 30.25 in 10.0 mi Calm Calm - N/A   Overcast
5:30 AM 37.4 °F 35.6 °F 93% 30.25 in 10.0 mi Calm Calm - N/A   Scattered Clouds
5:53 AM 37.0 °F 35.1 °F 93% 30.25 in 10.0 mi Calm Calm - N/A   Clear
6:53 AM 37.0 °F 35.1 °F 93% 30.25 in 10.0 mi Calm Calm - N/A   Clear
7:06 AM 37.4 °F 35.6 °F 93% 30.25 in 10.0 mi Calm Calm - N/A   Scattered Clouds
7:15 AM 37.4 °F 35.6 °F 93% 30.25 in 10.0 mi Calm Calm - N/A   Mostly Cloudy
7:42 AM 37.4 °F 35.6 °F 93% 30.26 in 10.0 mi Calm Calm - N/A   Partly Cloudy
7:53 AM 39.9 °F 37.0 °F 89% 30.26 in 10.0 mi Calm Calm - N/A   Mostly Cloudy
9:20 AM 51.8 °F 46.4 °F 82% 30.25 in 10.0 mi Calm Calm - N/A   Scattered Clouds
9:53 AM 54.0 °F 48.9 °F 83% 30.25 in 10.0 mi Variable 3.5 mph - N/A   Clear
10:53 AM 59.0 °F 50.0 °F 72% 30.25 in 10.0 mi Variable 3.5 mph - N/A   Clear
11:53 AM 60.1 °F 46.0 °F 60% 30.23 in 10.0 mi Variable 3.5 mph - N/A   Clear
12:53 PM 62.1 °F 46.9 °F 58% 30.21 in 10.0 mi SSE 6.9 mph - N/A   Clear
1:53 PM 62.1 °F 48.0 °F 60% 30.19 in 10.0 mi Variable 5.8 mph - N/A   Clear
2:53 PM 61.0 °F 48.0 °F 62% 30.19 in 10.0 mi South 6.9 mph - N/A   Clear
3:53 PM 60.1 °F 48.9 °F 67% 30.19 in 10.0 mi South 5.8 mph - N/A   Clear
4:53 PM 57.9 °F 48.9 °F 72% 30.17 in 10.0 mi SSW 4.6 mph - N/A   Clear
5:53 PM 55.0 °F 48.9 °F 80% 30.16 in 10.0 mi Calm Calm - N/A   Clear
6:53 PM 51.1 °F 46.9 °F 86% 30.16 in 10.0 mi Calm Calm - N/A   Clear
7:53 PM 48.9 °F 45.0 °F 86% 30.17 in 10.0 mi Calm Calm - N/A   Clear
8:53 PM 46.9 °F 44.1 °F 90% 30.18 in 10.0 mi Calm Calm - N/A   Clear
9:53 PM 46.0 °F 43.0 °F 89% 30.17 in 10.0 mi Calm Calm - N/A   Clear
10:05 PM 46.4 °F 42.8 °F 87% 30.16 in 10.0 mi Calm Calm - N/A   Scattered Clouds
10:13 PM 46.4 °F 42.8 °F 87% 30.16 in 10.0 mi Calm Calm - N/A   Mostly Cloudy
10:34 PM 46.4 °F 44.6 °F 93% 30.16 in 1.2 mi Calm Calm - N/A   Overcast
10:42 PM 46.4 °F 44.6 °F 93% 30.16 in 0.2 mi Calm Calm - N/A Fog Fog
10:53 PM 46.0 °F 44.1 °F 93% 30.16 in 0.2 mi Calm Calm - N/A Fog Fog
11:53 PM 46.9 °F 45.0 °F 93% 30.15 in 0.2 mi Calm Calm - N/A Fog Fog